Weather History for Pascagoula, MS

Change the Weather History Date:

Friday, June 14, 2013

  Actual Average Record
Temperature  
Mean Temperature 84 °F -  
Max Temperature 93 °F 88 °F 100 °F (1952)
Min Temperature 73 °F 72 °F 61 °F (1988)
Cooling Degree Days 19    
Growing Degree Days 34 (Base 50)    
Moisture  
Dew Point 72 °F    
Average Humidity 75    
Maximum Humidity 94    
Minimum Humidity 42    
Precipitation  
Precipitation 0.53 in - - ()
Sea Level Pressure  
Sea Level Pressure 29.91 in    
Wind  
Wind Speed 4 mph (North)    
Max Wind Speed 12 mph    
Max Gust Speed -    
Visibility 8 miles    
Events Rain , Thunderstorm    
Averages and records for this station are not official NWS values.
T = Trace of Precipitation, MM = Missing Value Source: NWS Daily Summary

Daily Weather History Graph

Daily Weather History Graph

Search for Another Location

Airport:

Trip Planner

Search our weather history database for the weather conditions in past years. The results will help you decide how hot, cold, wet, or windy it might be!

Date:

Astronomy

Jun. 14, 2013 Rise Set
Actual Time 5:51 AM CDT 7:57 PM CDT
Civil Twilight 5:23 AM CDT 8:25 PM CDT
Nautical Twilight 4:50 AM CDT 8:58 PM CDT
Astronomical Twilight 4:14 AM CDT 9:34 PM CDT
Moon 11:06 AM CDT (6/14) 11:55 PM CDT (6/14)
Length of Visible Light 15h 01m
Length of Day
14h 06m
Waxing Crescent, 30% of the Moon is Illuminated
Jun 14
Waxing Crescent
Jun 16
First Quarter
Jun 23
Full
Jun 29
Last Quarter
Jul 8
New

Hourly Weather History & Observations

Time (CDT) Temp. Heat Index Dew Point Humidity Pressure Visibility Wind Dir Wind Speed Gust Speed Precip Events Conditions
12:53 AM 75.0 °F - 73.0 °F 94% 29.94 in 7.0 mi Calm Calm - N/A   Clear
1:53 AM 78.1 °F - 73.0 °F 84% 29.90 in 10.0 mi WSW 4.6 mph - N/A   Clear
2:53 AM 78.1 °F - 72.0 °F 81% 29.88 in 10.0 mi Calm Calm - N/A   Clear
3:53 AM 79.0 °F - 72.0 °F 79% 29.88 in 10.0 mi West 3.5 mph - N/A   Scattered Clouds
4:53 AM 79.0 °F - 72.0 °F 79% 29.90 in 10.0 mi North 4.6 mph - N/A   Overcast
5:03 AM 78.8 °F - 73.4 °F 83% 29.90 in 10.0 mi Calm Calm - N/A Thunderstorm Overcast
5:14 AM 77.0 °F - 73.4 °F 89% 29.91 in 2.5 mi NE 10.4 mph - 0.17 in Rain Heavy Rain
5:18 AM 75.2 °F - 73.4 °F 94% 29.91 in 1.2 mi Variable 4.6 mph - 0.32 in Rain , Thunderstorm Heavy Thunderstorms and Rain
5:24 AM 75.2 °F - 73.4 °F 94% 29.91 in 0.8 mi ESE 5.8 mph - 0.53 in Rain , Thunderstorm Heavy Thunderstorms and Rain
5:27 AM 75.2 °F - 73.4 °F 94% 29.91 in 1.0 mi East 8.1 mph - 0.53 in Rain , Thunderstorm Heavy Thunderstorms and Rain
5:33 AM 75.2 °F - 73.4 °F 94% 29.91 in 4.0 mi ESE 6.9 mph - 0.53 in Rain , Thunderstorm Light Thunderstorms and Rain
5:53 AM 75.9 °F - 73.9 °F 94% 29.92 in 8.0 mi Calm Calm - 0.53 in Thunderstorm Thunderstorm
6:18 AM 75.2 °F - 73.4 °F 94% 29.91 in 8.0 mi SW 3.5 mph - 0.00 in   Overcast
6:53 AM 75.9 °F - 73.9 °F 94% 29.91 in 6.0 mi Calm Calm - 0.00 in   Scattered Clouds
7:53 AM 79.0 °F - 75.9 °F 90% 29.92 in 7.0 mi WNW 3.5 mph - N/A   Clear
8:53 AM 82.0 °F 88.6 °F 75.0 °F 79% 29.92 in 10.0 mi WNW 3.5 mph - N/A   Clear
9:53 AM 84.0 °F 92.6 °F 75.9 °F 76% 29.92 in 10.0 mi Variable 3.5 mph - N/A   Partly Cloudy
10:53 AM 86.0 °F 96.0 °F 75.9 °F 72% 29.91 in 10.0 mi North 11.5 mph - N/A   Mostly Cloudy
11:08 AM 87.8 °F 97.6 °F 75.2 °F 66% 29.91 in 10.0 mi North 9.2 mph - N/A   Scattered Clouds
11:53 AM 88.0 °F 97.5 °F 75.0 °F 65% 29.91 in 10.0 mi North 8.1 mph - N/A   Scattered Clouds
12:04 PM 87.8 °F 97.6 °F 75.2 °F 66% 29.90 in 10.0 mi North 8.1 mph - N/A   Mostly Cloudy
12:15 PM 89.6 °F 99.8 °F 75.2 °F 62% 29.90 in 10.0 mi North 10.4 mph - N/A   Scattered Clouds
12:53 PM 90.0 °F 100.2 °F 75.0 °F 61% 29.90 in 10.0 mi North 6.9 mph - N/A   Scattered Clouds
1:53 PM 91.0 °F 100.4 °F 73.9 °F 57% 29.89 in 10.0 mi WNW 8.1 mph - N/A   Partly Cloudy
2:53 PM 93.0 °F 101.9 °F 73.0 °F 52% 29.89 in 10.0 mi NW 8.1 mph - N/A   Scattered Clouds
3:53 PM 93.9 °F 98.6 °F 68.0 °F 43% 29.88 in 10.0 mi North 9.2 mph - N/A   Partly Cloudy
4:53 PM 93.9 °F 99.1 °F 69.1 °F 44% 29.87 in 10.0 mi NNE 9.2 mph - N/A   Scattered Clouds
5:53 PM 91.9 °F 94.5 °F 66.0 °F 42% 29.87 in 10.0 mi North 6.9 mph - N/A   Clear
6:53 PM 89.1 °F 92.1 °F 66.9 °F 48% 29.88 in 10.0 mi North 5.8 mph - N/A   Clear
7:53 PM 82.0 °F 84.9 °F 68.0 °F 62% 29.90 in 10.0 mi NNE 4.6 mph - N/A   Clear
8:53 PM 78.1 °F - 69.1 °F 74% 29.92 in 10.0 mi Calm Calm - N/A   Clear
9:53 PM 75.0 °F - 69.1 °F 82% 29.93 in 10.0 mi North 3.5 mph - N/A   Clear
10:53 PM 75.0 °F - 68.0 °F 79% 29.95 in 10.0 mi NNE 5.8 mph - N/A   Clear
11:53 PM 73.0 °F - 66.9 °F 81% 29.96 in 10.0 mi Calm Calm - N/A   Clear